Wind_Speed
12 4 12 12 11 12 11 9 9 11 12 11 12 10 9 8 7 6 7 8 9 10 10 10 10 10 11 10 9 9 10 10 11 12 12 11 10 9 11 11 14 12 13
13 5 12 12 12 12 11 10 9 11 12 11 12 10 8 8 7 7 8 9 10 10 9 9 10 11 13 7 10 10 10 11 12 11 11 13 14 14 14 13 12 11 11
10 3 12 13 12 12 12 11 10 11 11 11 11 10 10 8 7 7 8 9 10 11 10 10 10 12 10 8 10 11 12 11 13 12 10 11 9 10 9 9 9 10 10
10 4 10 13 12 12 12 12 11 11 11 11 10 10 10 8 7 8 9 9 9 10 12 12 11 10 11 9 10 10 11 11 11 8 3 6 6 7 7 8 8 9 9
8 3 7 11 11 12 11 11 10 11 11 10 10 9 9 8 8 8 10 9 12 9 12 14 15 11 11 11 9 8 9 9 10 5 4 5 5 5 7 8 7 8 9
11 2 6 7 10 10 12 12 12 11 11 12 12 11 10 11 9 9 10 11 13 12 14 17 14 11 12 11 10 8 7 7 8 4 4 6 5 5 6 6 6 8 8
11 6 4 5 8 9 11 12 13 12 12 11 11 10 11 12 11 11 12 11 14 14 15 17 13 13 13 12 10 8 7 7 3 4 5 5 5 6 6 6 6 6 7
10 7 4 3 9 8 9 12 13 13 13 13 12 12 12 12 12 13 13 13 14 14 14 17 15 13 14 13 11 8 7 8 3 4 4 5 7 8 6 5 4 5 5
11 9 9 6 6 10 12 12 12 14 14 14 14 14 13 12 12 13 14 16 17 16 16 18 14 14 15 13 13 11 9 8 6 5 5 5 7 8 7 5 4 4 3
10 10 9 8 7 9 11 13 15 14 13 14 14 14 14 14 14 13 14 15 16 16 18 20 15 15 15 13 13 12 10 9 7 6 6 5 7 7 7 6 5 4 4
8 8 9 9 9 10 12 12 12 15 16 16 15 15 15 13 14 14 14 15 17 17 19 20 15 15 16 14 13 12 11 8 7 8 7 10 9 7 6 6 5 5 5
12 11 9 9 9 11 13 13 12 13 13 13 14 14 13 14 15 16 15 17 18 18 20 20 17 14 17 12 13 15 14 10 10 9 9 11 12 9 8 7 6 5 5
14 14 13 12 11 9 11 14 14 14 13 13 14 13 13 14 16 16 15 12 17 19 20 19 16 14 15 16 15 13 14 14 12 11 11 12 13 12 11 9 8 8 7
17 17 18 16 14 11 12 15 18 18 16 16 16 14 14 13 14 15 17 17 16 17 21 19 19 16 17 18 17 16 16 15 13 11 12 13 13 13 12 13 12 11 10
21 20 18 17 17 16 13 14 17 20 18 16 14 14 13 13 14 14 16 14 13 16 18 21 22 20 19 18 20 19 17 16 14 13 11 13 13 15 14 14 14 14 14
22 22 20 19 19 20 18 17 16 19 18 17 16 15 18 13 13 15 15 15 16 17 18 20 19 19 17 18 18 18 19 17 16 15 14 13 13 16 17 17 17 17 17
23 24 25 23 20 22 21 20 19 19 24 19 18 17 20 16 12 13 13 15 15 17 17 18 17 18 18 18 17 18 19 19 19 17 17 15 14 14 17 20 20 20 19
24 25 25 23 24 21 22 22 21 19 22 22 19 17 19 18 16 12 12 13 12 11 13 14 17 21 21 20 23 22 20 20 20 19 18 18 18 16 16 18 22 22 21
22 23 24 23 25 23 23 24 24 21 22 21 19 17 18 15 14 15 12 12 12 12 13 14 17 18 17 19 21 22 22 21 23 21 21 22 21 20 17 18 19 22 25
20 21 22 22 22 21 20 21 23 21 24 22 20 19 17 18 15 13 14 10 19 15 13 16 19 18 21 18 20 21 20 21 20 22 21 23 25 23 21 21 19 20 23
22 20 20 21 22 20 18 19 20 17 22 27 23 20 16 15 16 17 14 12 18 18 17 18 20 18 19 21 14 17 20 25 26 26 27 25 23 24 23 23 22 21 19
30 26 23 23 21 20 18 19 17 15 24 26 26 23 19 17 17 18 17 19 16 20 17 18 20 16 18 18 10 11 4 12 28 31 29 30 29 26 25 26 27 27 26
25 26 27 22 21 20 18 17 18 20 20 20 22 20 19 19 19 17 17 18 22 20 18 18 19 21 19 20 26 13 3 6 8 18 30 33 32 31 33 32 35 34 30
23 23 24 21 19 20 17 17 19 19 17 20 22 19 17 16 15 16 17 17 20 20 21 21 21 21 22 20 18 23 24 12 3 5 14 19 29 30 31 31 30 30 28
22 22 20 17 10 13 11 17 13 14 21 24 16 14 13 8 6 7 12 14 17 18 21 22 21 21 22 21 21 16 17 20 20 7 8 10 12 21 24 27 25 23 24
24 22 20 16 14 9 4 6 10 6 11 24 16 11 12 7 3 1 4 6 8 12 17 20 21 23 24 23 23 23 22 10 14 12 10 14 17 26 23 26 26 24 23
Wind_Direction
360 227 187 195 189 190 190 185 172 174 177 176 166 167 167 163 161 159 155 150 150 150 151 151 151 147 130 119 118 127 116 121 108 112 110 106 105 104 106 97 101 91 81
330 210 188 199 197 191 193 190 176 178 179 179 177 175 178 172 173 172 166 164 165 164 163 163 157 145 135 133 129 116 127 121 107 112 111 95 94 89 92 99 94 85 81
336 199 188 200 200 196 194 196 187 185 185 181 186 186 182 192 188 187 182 178 183 200 173 166 163 148 147 152 143 131 131 128 122 107 112 96 90 86 89 101 89 83 82
325 202 188 209 209 206 199 198 196 190 191 196 198 200 195 197 212 197 198 197 189 175 176 171 163 167 168 161 149 141 145 142 138 114 98 113 104 94 85 85 84 80 80
321 196 209 214 211 219 214 209 212 207 200 208 211 209 207 215 226 210 209 208 195 198 185 177 182 188 179 164 157 158 158 152 141 87 116 110 112 111 102 84 80 94 104
338 304 209 218 211 221 223 221 214 212 216 216 215 218 225 223 229 220 216 211 203 211 193 189 189 190 179 170 172 177 179 164 143 143 133 134 112 124 107 120 111 94 94
334 340 225 231 211 226 227 229 227 222 221 223 226 224 235 237 223 220 219 215 205 215 204 194 197 184 176 174 177 187 191 170 144 168 152 141 142 126 117 110 108 107 105
345 339 308 254 231 235 237 230 231 231 232 232 233 232 238 238 236 227 222 221 217 222 213 201 195 190 184 180 185 198 192 178 183 194 177 158 178 143 138 131 123 116 115
9 350 329 291 251 251 246 237 236 235 234 236 241 240 241 246 248 240 235 231 232 231 215 209 204 197 197 200 201 205 199 186 194 217 200 193 181 159 156 153 145 138 132
2 4 352 305 283 268 252 250 239 238 238 241 242 244 245 245 245 248 247 243 236 234 217 210 216 202 200 200 199 199 201 194 183 208 216 220 211 178 175 173 169 168 170
329 342 346 339 297 282 267 261 255 242 237 237 241 245 246 245 247 239 242 237 242 232 223 215 223 210 205 204 208 207 208 210 227 214 208 224 225 193 198 196 196 197 196
307 312 317 322 319 286 272 261 246 240 237 236 236 238 242 239 242 246 236 238 234 233 225 225 228 223 210 209 218 217 215 220 224 222 221 230 216 196 211 219 221 221 227
298 296 296 302 302 289 272 253 253 245 237 236 234 231 235 238 240 240 240 230 234 226 223 220 219 215 215 215 217 217 220 223 226 227 231 238 223 204 208 220 229 232 235
294 289 287 285 283 285 271 247 242 247 242 238 235 232 231 239 239 240 228 230 218 218 217 212 215 215 220 221 223 223 221 222 224 226 237 245 234 222 217 220 225 231 236
286 287 285 281 274 274 266 262 242 235 243 241 230 227 232 224 235 234 241 246 222 219 218 221 216 218 219 221 226 228 228 227 230 233 233 244 241 233 229 229 235 232 232
286 282 282 277 272 267 264 256 249 235 234 234 234 228 221 225 240 239 247 241 233 225 223 222 221 221 215 220 227 233 234 234 234 234 237 248 254 243 238 236 233 240 239
290 286 281 277 275 270 264 260 252 240 226 227 227 223 227 221 219 247 243 242 233 234 232 234 228 218 215 217 227 237 237 238 238 238 239 237 251 260 247 241 240 239 243
293 285 280 278 273 270 266 260 253 246 229 223 224 220 226 223 223 224 233 245 238 237 235 240 238 231 240 230 222 227 228 234 235 235 240 242 239 239 253 248 241 243 245
302 292 282 276 273 264 265 262 257 243 237 222 215 207 204 207 220 223 224 262 262 256 251 244 241 233 232 227 223 229 232 231 234 237 236 239 239 237 239 248 251 247 243
307 297 288 278 268 265 263 257 266 243 241 220 211 207 217 218 214 223 232 243 286 278 269 257 255 249 245 242 235 232 231 232 234 233 251 246 240 237 236 239 245 249 247
324 305 290 276 265 259 255 252 249 246 247 237 214 208 202 204 213 216 222 234 236 253 249 252 259 253 244 240 239 238 241 240 244 245 238 241 246 242 237 236 233 234 244
321 318 296 278 264 260 256 254 245 248 247 237 228 212 209 210 218 228 238 247 248 246 245 247 247 254 254 243 230 236 235 243 242 239 238 241 246 242 237 238 235 234 231
321 309 307 291 266 257 257 258 241 237 250 227 221 208 210 216 222 228 237 247 245 242 243 247 242 248 248 237 231 226 199 241 262 239 231 235 237 236 245 243 242 238 237
326 323 310 287 271 260 252 239 239 230 226 217 201 197 187 200 210 218 227 237 242 247 250 247 250 242 244 248 238 227 241 256 272 266 260 232 234 236 235 235 237 233 234
340 342 347 334 300 274 262 241 235 252 257 245 205 158 147 157 198 234 242 247 254 258 255 253 255 251 249 247 245 233 235 246 246 245 261 259 257 243 237 236 230 235 234
352 355 6 21 24 31 133 140 35 354 359 354 46 76 98 104 110 62 256 260 264 275 277 271 266 262 258 253 251 245 236 227 229 229 243 254 254 256 259 254 242 231 236
Height
784 783 785 786 787 789 790 791 792 794 795 795 797 798 800 801 801 802 803 804 806 806 807 807 808 808 809 810 810 811 811 811 811 811 811 812 812 813 813 813 814 815 815
786 784 785 787 788 790 792 793 794 795 796 797 798 800 801 802 803 803 804 805 806 808 808 809 809 810 811 811 811 812 813 813 813 813 813 814 814 814 815 816 816 816 816
786 785 786 788 789 790 792 793 794 796 797 798 799 800 802 803 804 805 806 806 808 808 809 810 810 811 812 813 813 813 813 814 815 815 815 816 817 817 817 817 818 818 818
786 786 787 788 790 792 792 793 795 796 798 799 800 801 802 803 804 805 806 807 808 809 810 811 812 813 813 813 815 814 814 815 816 817 817 818 819 819 819 819 819 819 819
786 787 788 789 791 793 795 796 797 798 799 800 801 802 803 803 804 805 806 807 808 809 810 811 812 813 814 814 815 816 816 816 817 818 819 820 820 820 820 820 820 821 821
787 787 788 789 791 793 795 796 796 798 799 801 802 802 803 803 804 805 806 807 808 809 810 810 812 813 814 815 816 817 817 818 818 819 820 821 821 821 821 821 822 822 822
789 788 789 789 791 793 794 796 797 798 799 800 801 802 803 803 803 804 806 807 807 809 809 811 812 812 813 815 816 817 818 819 819 820 820 821 821 822 822 822 822 822 823
790 789 789 790 791 792 794 795 797 798 799 800 801 802 802 803 803 804 804 806 807 808 810 811 811 813 813 814 816 817 818 819 821 822 822 821 820 821 822 823 823 823 823
793 792 790 791 792 792 793 794 796 797 798 799 800 801 801 802 803 803 804 805 806 807 808 810 810 812 813 814 815 816 817 818 819 822 822 822 821 822 822 822 823 824 824
794 793 792 791 791 792 792 792 794 795 796 797 798 799 801 801 801 802 803 804 804 806 807 809 810 811 813 814 815 815 816 818 818 820 822 821 821 823 823 823 823 823 824
795 794 793 792 792 791 791 791 792 793 794 795 796 797 798 799 800 800 801 802 802 803 805 808 810 811 813 814 815 815 816 817 818 819 819 819 821 823 824 824 824 824 824
794 794 793 792 791 791 790 790 791 791 792 793 794 795 795 796 797 797 797 798 800 801 804 806 808 810 811 814 814 814 814 816 816 817 818 817 819 821 823 824 824 825 825
791 792 792 791 790 789 788 788 789 789 789 790 790 791 792 793 794 795 796 797 798 800 802 804 807 808 810 811 812 813 813 814 814 816 816 816 817 819 820 822 823 824 824
789 789 789 789 788 787 786 784 786 787 788 787 787 788 789 790 791 792 793 794 795 797 799 800 803 805 807 808 809 810 811 812 812 813 814 814 815 817 819 819 819 821 822
786 785 785 785 785 785 784 782 782 782 784 785 785 786 786 787 788 790 791 791 792 794 796 797 799 800 802 804 806 807 808 809 811 811 812 811 812 814 815 818 819 818 818
782 781 780 780 780 780 780 779 778 778 779 781 782 782 782 782 784 786 788 789 791 791 793 795 796 797 799 801 803 806 806 806 807 808 809 809 810 810 812 813 815 817 817
779 777 776 776 776 776 775 775 775 773 774 776 777 777 779 780 781 783 784 787 788 789 790 792 793 794 795 798 801 802 803 803 804 805 805 806 807 808 808 808 810 811 812
775 774 773 772 772 772 771 771 770 770 769 770 772 773 774 776 778 779 781 785 785 786 787 789 790 791 791 794 794 796 797 799 800 800 801 802 803 803 803 804 804 806 808
774 772 769 768 768 767 767 767 766 766 766 765 767 768 770 772 774 776 778 780 784 784 785 786 787 787 788 791 790 793 794 794 795 796 795 796 798 798 798 799 800 801 801
772 769 766 765 763 763 762 762 762 761 762 762 763 764 767 768 770 773 775 774 781 781 783 784 784 784 785 787 787 788 788 790 791 790 791 792 792 793 793 794 795 795 796
769 766 763 762 760 760 759 759 757 757 759 758 758 760 761 765 769 771 771 772 776 779 780 782 781 781 781 783 784 784 784 784 785 784 784 786 787 786 787 789 789 789 791
770 763 760 758 756 755 756 754 753 755 755 754 755 756 759 761 763 766 767 769 771 774 774 777 776 778 778 779 779 781 780 779 777 776 777 779 779 780 780 783 784 782 781
772 767 761 754 752 751 752 750 752 750 751 752 750 751 753 756 759 761 764 765 768 771 771 772 770 771 774 775 774 775 775 772 769 767 768 769 771 772 774 775 776 776 774
773 766 759 751 747 746 745 744 748 746 745 744 744 747 748 752 755 758 761 763 764 766 765 767 767 765 770 770 770 769 768 768 767 764 763 762 762 763 764 766 768 768 767
772 765 758 750 745 742 743 744 745 746 745 742 742 741 745 749 754 757 758 760 762 762 762 763 762 761 764 764 765 765 765 765 765 767 763 760 759 758 757 758 757 757 759
772 767 760 754 748 743 743 746 746 749 746 744 729 738 742 746 750 753 756 757 758 758 759 759 759 759 760 758 760 760 760 758 758 759 758 756 754 753 753 751 751 749 752